Time,TemperatureF,DewpointF,PressureIn,WindDirection,WindDirectionDegrees,WindSpeedMPH,WindSpeedGustMPH,Humidity,HourlyPrecipIn,Conditions,Clouds,dailyrainin,SolarRadiationWatts/m^2,SoftwareType,DateUTC
2013-02-16 00:00:00,18.0,3.0,-100.00,SSE,162,1.0,2.0,51,-99.99,,,0.00,0.000000,,2013-02-16 07:00:00,
2013-02-16 00:53:00,18.0,3.0,-100.00,SSE,162,1.0,2.0,51,-99.99,,,0.00,0.000000,,2013-02-16 07:53:00,
2013-02-16 01:00:00,18.0,3.0,-100.00,SSE,162,2.0,3.0,50,-99.99,,,-99.99,0.000000,,2013-02-16 08:00:00,
2013-02-16 01:52:00,18.0,3.0,-100.00,SSE,162,2.0,3.0,50,-99.99,,,-99.99,0.000000,,2013-02-16 08:52:00,
2013-02-16 02:00:00,18.0,2.0,-100.00,SSE,163,2.0,3.0,48,-99.99,,,-99.99,0.000000,,2013-02-16 09:00:00,
2013-02-16 02:52:00,18.0,2.0,-100.00,SSE,163,2.0,3.0,48,-99.99,,,-99.99,0.000000,,2013-02-16 09:52:00,
2013-02-16 03:00:00,19.0,3.0,-100.00,SSE,163,2.0,3.0,48,-99.99,,,-99.99,0.000000,,2013-02-16 10:00:00,
2013-02-16 03:52:00,19.0,3.0,-100.00,SSE,163,2.0,3.0,48,-99.99,,,-99.99,0.000000,,2013-02-16 10:52:00,
2013-02-16 04:00:00,20.0,3.0,-100.00,SSE,161,2.0,3.0,46,-99.99,,,-99.99,0.000000,,2013-02-16 11:00:00,
2013-02-16 04:52:00,20.0,3.0,-100.00,SSE,161,2.0,3.0,46,-99.99,,,-99.99,0.000000,,2013-02-16 11:52:00,
2013-02-16 05:00:00,21.0,3.0,-100.00,SSE,155,2.0,4.0,45,-99.99,,,-99.99,0.000000,,2013-02-16 12:00:00,
2013-02-16 05:52:00,21.0,3.0,-100.00,SSE,155,2.0,4.0,45,-99.99,,,-99.99,0.000000,,2013-02-16 12:52:00,
2013-02-16 07:00:00,21.0,4.0,-100.00,SSE,156,2.0,3.0,46,-99.99,,,-99.99,0.900000,,2013-02-16 14:00:00,
2013-02-16 07:52:00,21.0,4.0,-100.00,SSE,156,2.0,3.0,46,-99.99,,,-99.99,0.900000,,2013-02-16 14:52:00,
2013-02-16 08:00:00,21.0,1.0,-100.00,SSE,147,1.0,3.0,40,-99.99,,,-99.99,10.400000,,2013-02-16 15:00:00,
2013-02-16 08:52:00,21.0,1.0,-100.00,SSE,147,1.0,3.0,40,-99.99,,,-99.99,10.400000,,2013-02-16 15:52:00,
2013-02-16 09:00:00,28.0,7.0,-100.00,SE,124,1.0,2.0,39,-99.99,,,0.00,270.799988,,2013-02-16 16:00:00,
2013-02-16 09:52:00,28.0,7.0,-100.00,SE,124,1.0,2.0,39,-99.99,,,0.00,270.799988,,2013-02-16 16:52:00,
2013-02-16 10:00:00,32.0,3.0,-100.00,NNE,22,1.0,4.0,28,-99.99,,,0.00,379.700012,,2013-02-16 17:00:00,
2013-02-16 10:52:00,32.0,3.0,-100.00,NNE,22,1.0,4.0,28,-99.99,,,0.00,379.700012,,2013-02-16 17:52:00,
2013-02-16 11:00:00,35.0,4.0,-100.00,North,351,1.0,5.0,27,-99.99,,,0.00,162.100006,,2013-02-16 18:00:00,
2013-02-16 11:52:00,35.0,4.0,-100.00,North,351,1.0,5.0,27,-99.99,,,0.00,162.100006,,2013-02-16 18:52:00,
2013-02-16 12:00:00,38.0,7.0,-100.00,NNW,343,2.0,5.0,26,-99.99,,,0.00,441.100006,,2013-02-16 19:00:00,
2013-02-16 12:52:00,38.0,7.0,-100.00,NNW,343,2.0,5.0,26,-99.99,,,0.00,441.100006,,2013-02-16 19:52:00,
2013-02-16 13:00:00,40.0,6.0,-100.00,North,357,2.0,7.0,24,-99.99,,,0.00,777.500000,,2013-02-16 20:00:00,
2013-02-16 13:52:00,40.0,6.0,-100.00,North,357,2.0,7.0,24,-99.99,,,0.00,777.500000,,2013-02-16 20:52:00,
2013-02-16 14:00:00,39.0,4.0,-100.00,NNE,21,2.0,6.0,23,-99.99,,,0.00,431.000000,,2013-02-16 21:00:00,
2013-02-16 14:52:00,39.0,4.0,-100.00,NNE,21,2.0,6.0,23,-99.99,,,0.00,431.000000,,2013-02-16 21:52:00,
2013-02-16 15:00:00,37.0,4.0,-100.00,North,3,2.0,8.0,24,-99.99,,,0.00,170.300003,,2013-02-16 22:00:00,
2013-02-16 15:52:00,37.0,4.0,-100.00,North,3,2.0,8.0,24,-99.99,,,0.00,170.300003,,2013-02-16 22:52:00,
2013-02-16 16:00:00,37.0,5.0,-100.00,NNE,25,2.0,6.0,26,-99.99,,,0.00,70.199997,,2013-02-16 23:00:00,
2013-02-16 17:00:00,35.0,6.0,-100.00,ENE,57,1.0,5.0,29,-99.99,,,0.00,20.200001,,2013-02-17 00:00:00,
2013-02-16 17:52:00,35.0,6.0,-100.00,ENE,57,1.0,5.0,29,-99.99,,,0.00,20.200001,,2013-02-17 00:52:00,
2013-02-16 18:00:00,31.0,7.0,-100.00,ESE,106,1.0,4.0,35,-99.99,,,0.00,5.500000,,2013-02-17 01:00:00,
2013-02-16 18:52:00,31.0,7.0,-100.00,ESE,106,1.0,4.0,35,-99.99,,,0.00,5.500000,,2013-02-17 01:52:00,
2013-02-16 19:00:00,30.0,9.0,-100.00,ESE,116,2.0,4.0,40,-99.99,,,0.00,0.000000,,2013-02-17 02:00:00,
2013-02-16 19:52:00,30.0,9.0,-100.00,ESE,116,2.0,4.0,40,-99.99,,,0.00,0.000000,,2013-02-17 02:52:00,
2013-02-16 20:00:00,29.0,9.0,-100.00,ESE,119,2.0,4.0,43,-99.99,,,0.00,0.000000,,2013-02-17 03:00:00,
2013-02-16 20:52:00,29.0,9.0,-100.00,ESE,119,2.0,4.0,43,-99.99,,,0.00,0.000000,,2013-02-17 03:52:00,
2013-02-16 21:00:00,29.0,9.0,-100.00,ESE,114,2.0,4.0,43,-99.99,,,0.00,0.000000,,2013-02-17 04:00:00,
2013-02-16 21:52:00,29.0,9.0,-100.00,ESE,114,2.0,4.0,43,-99.99,,,0.00,0.000000,,2013-02-17 04:52:00,
2013-02-16 23:00:00,24.0,9.0,-100.00,SE,136,2.0,3.0,51,-99.99,,,0.00,0.000000,,2013-02-17 06:00:00,
2013-02-16 23:52:00,24.0,9.0,-100.00,SE,136,2.0,3.0,51,-99.99,,,0.00,0.000000,,2013-02-17 06:52:00,